• Em Portugal
  • Lista de países
  • Para 7 dias
  • Temperatura da água
  • Mapas de satélite
  • Mapa do tempo
  • Widgets de tempo
  • user-avatar
    Iniciar Sessão

    Previsão horária em Dinagepoor

    Hoje, 22 Junho, Sexta-feira

    Tempo Temperatura Precipitação Vento Pressão Humidade
    00:00 +34°C° 0 mm 3 m/s 748 mmHg 68%
    01:00 +34°C° 0,3 mm 3 m/s 748 mmHg 69%
    02:00 +34°C° 0,3 mm 3 m/s 748 mmHg 70%
    03:00 +33°C° 0,3 mm 3 m/s 748 mmHg 71%
    04:00 +33°C° 0,2 mm 3 m/s 748 mmHg 71%
    05:00 +33°C° 0,2 mm 3 m/s 748 mmHg 72%
    06:00 +33°C° 0,2 mm 4 m/s 748 mmHg 72%
    07:00 +34°C° 0,2 mm 4 m/s 749 mmHg 66%
    08:00 +35°C° 0,2 mm 5 m/s 749 mmHg 60%
    09:00 +37°C° 0,2 mm 5 m/s 749 mmHg 54%
    10:00 +39°C° 0,3 mm 5 m/s 749 mmHg 50%
    11:00 +41°C° 0,3 mm 4 m/s 749 mmHg 45%
    12:00 +42°C° 0,3 mm 4 m/s 748 mmHg 41%
    13:00 +42°C° 0 mm 3 m/s 748 mmHg 41%
    14:00 +42°C° 0 mm 3 m/s 747 mmHg 41%
    15:00 +40°C° 0 mm 3 m/s 746 mmHg 41%
    16:00 +40°C° 0 mm 3 m/s 746 mmHg 43%
    17:00 +40°C° 0 mm 3 m/s 746 mmHg 45%
    18:00 +39°C° 0 mm 3 m/s 745 mmHg 47%
    19:00 +38°C° 0 mm 3 m/s 746 mmHg 50%
    20:00 +37°C° 0 mm 3 m/s 746 mmHg 52%
    21:00 +37°C° 0 mm 4 m/s 746 mmHg 55%
    22:00 +36°C° 0 mm 4 m/s 747 mmHg 57%
    23:00 +36°C° 0 mm 4 m/s 747 mmHg 59%

    Amanhã, 23 Junho, Sábado

    Tempo Temperatura Precipitação Vento Pressão Humidade
    00:00 +35°C° 0 mm 4 m/s 747 mmHg 61%
    01:00 +35°C° 0,1 mm 4 m/s 747 mmHg 62%
    02:00 +34°C° 0,1 mm 4 m/s 747 mmHg 63%
    03:00 +34°C° 0,1 mm 4 m/s 746 mmHg 64%
    04:00 +33°C° 0 mm 4 m/s 747 mmHg 66%
    05:00 +33°C° 0 mm 4 m/s 747 mmHg 67%
    06:00 +33°C° 0 mm 4 m/s 747 mmHg 68%
    07:00 +34°C° 0 mm 4 m/s 747 mmHg 67%
    08:00 +34°C° 0 mm 4 m/s 748 mmHg 66%
    09:00 +35°C° 0 mm 4 m/s 748 mmHg 65%
    10:00 +37°C° 0 mm 4 m/s 748 mmHg 58%
    11:00 +38°C° 0 mm 4 m/s 748 mmHg 52%
    12:00 +41°C° 0 mm 4 m/s 747 mmHg 46%
    13:00 +40°C° 0,1 mm 3 m/s 747 mmHg 45%
    14:00 +42°C° 0,1 mm 3 m/s 746 mmHg 43%
    15:00 +42°C° 0,1 mm 3 m/s 745 mmHg 42%
    16:00 +41°C° 0 mm 4 m/s 745 mmHg 47%
    17:00 +40°C° 0 mm 4 m/s 745 mmHg 51%
    18:00 +39°C° 0 mm 5 m/s 744 mmHg 55%
    19:00 +37°C° 0 mm 5 m/s 745 mmHg 57%
    20:00 +36°C° 0 mm 4 m/s 745 mmHg 59%
    21:00 +36°C° 0 mm 4 m/s 745 mmHg 61%
    22:00 +35°C° 0,1 mm 5 m/s 746 mmHg 63%
    23:00 +35°C° 0,1 mm 5 m/s 746 mmHg 65%

    Depois de amanhã, 24 Junho, Domingo

    Tempo Temperatura Precipitação Vento Pressão Humidade
    00:00 +34°C° 0,1 mm 5 m/s 746 mmHg 67%
    01:00 +34°C° 0,5 mm 5 m/s 746 mmHg 68%
    02:00 +33°C° 0,5 mm 5 m/s 746 mmHg 69%
    03:00 +33°C° 0,5 mm 5 m/s 746 mmHg 70%
    04:00 +32°C° 1,9 mm 4 m/s 746 mmHg 72%
    05:00 +32°C° 1,9 mm 4 m/s 746 mmHg 75%
    06:00 +31°C° 1,9 mm 3 m/s 746 mmHg 77%
    07:00 +32°C° 0,5 mm 4 m/s 746 mmHg 74%
    08:00 +33°C° 0,5 mm 4 m/s 747 mmHg 71%
    09:00 +34°C° 0,5 mm 5 m/s 747 mmHg 69%
    10:00 +35°C° 0 mm 4 m/s 747 mmHg 63%
    11:00 +37°C° 0 mm 4 m/s 747 mmHg 58%
    12:00 +38°C° 0 mm 3 m/s 747 mmHg 52%
    13:00 +39°C° 0 mm 3 m/s 746 mmHg 49%
    14:00 +40°C° 0 mm 3 m/s 745 mmHg 45%
    15:00 +42°C° 0 mm 3 m/s 745 mmHg 42%
    16:00 +40°C° 0 mm 3 m/s 745 mmHg 45%
    17:00 +40°C° 0 mm 4 m/s 744 mmHg 49%
    18:00 +38°C° 0 mm 4 m/s 744 mmHg 53%
    19:00 +39°C° 0,1 mm 5 m/s 745 mmHg 55%
    20:00 +37°C° 0,1 mm 5 m/s 746 mmHg 58%
    21:00 +36°C° 0,1 mm 6 m/s 746 mmHg 60%
    22:00 +35°C° 0,2 mm 6 m/s 746 mmHg 63%
    23:00 +35°C° 0,2 mm 6 m/s 746 mmHg 65%

    25 Junho, Segunda-feira

    Tempo Temperatura Precipitação Vento Pressão Humidade
    00:00 +34°C° 0,2 mm 5 m/s 746 mmHg 68%
    01:00 +33°C° 1,4 mm 5 m/s 746 mmHg 71%
    02:00 +33°C° 1,4 mm 5 m/s 746 mmHg 74%
    03:00 +32°C° 1,4 mm 5 m/s 746 mmHg 77%
    04:00 +32°C° 1,7 mm 4 m/s 745 mmHg 80%
    05:00 +30°C° 1,7 mm 4 m/s 745 mmHg 82%
    06:00 +30°C° 1,7 mm 4 m/s 745 mmHg 84%
    07:00 +32°C° 0,6 mm 4 m/s 746 mmHg 81%
    08:00 +32°C° 0,6 mm 4 m/s 746 mmHg 79%
    09:00 +33°C° 0,6 mm 4 m/s 747 mmHg 76%
    10:00 +35°C° 1,4 mm 4 m/s 747 mmHg 71%
    11:00 +36°C° 1,4 mm 4 m/s 746 mmHg 66%
    12:00 +38°C° 1,4 mm 3 m/s 746 mmHg 60%
    13:00 +38°C° 0,6 mm 4 m/s 745 mmHg 60%
    14:00 +37°C° 0,6 mm 4 m/s 745 mmHg 60%
    15:00 +37°C° 0,6 mm 5 m/s 744 mmHg 60%
    16:00 +37°C° 0,2 mm 5 m/s 744 mmHg 64%
    17:00 +36°C° 0,2 mm 5 m/s 744 mmHg 67%
    18:00 +35°C° 0,2 mm 5 m/s 744 mmHg 71%
    19:00 +34°C° 0,2 mm 6 m/s 744 mmHg 74%
    20:00 +33°C° 0,2 mm 6 m/s 745 mmHg 77%
    21:00 +32°C° 0,2 mm 6 m/s 745 mmHg 80%
    22:00 +32°C° 1,3 mm 6 m/s 745 mmHg 81%
    23:00 +32°C° 1,3 mm 6 m/s 745 mmHg 83%

    26 Junho, Terça-feira

    Tempo Temperatura Precipitação Vento Pressão Humidade
    00:00 +30°C° 1,3 mm 6 m/s 746 mmHg 85%
    01:00 +30°C° 1,5 mm 5 m/s 745 mmHg 84%
    02:00 +30°C° 1,5 mm 5 m/s 745 mmHg 83%
    03:00 +30°C° 1,5 mm 5 m/s 745 mmHg 83%
    04:00 +30°C° 1,3 mm 4 m/s 745 mmHg 84%
    05:00 +30°C° 1,3 mm 4 m/s 745 mmHg 85%
    06:00 +29°C° 1,3 mm 4 m/s 745 mmHg 87%
    07:00 +30°C° 0,3 mm 4 m/s 746 mmHg 85%
    08:00 +30°C° 0,3 mm 5 m/s 746 mmHg 84%
    09:00 +32°C° 0,3 mm 5 m/s 747 mmHg 82%
    10:00 +33°C° 0,9 mm 5 m/s 747 mmHg 79%
    11:00 +33°C° 0,9 mm 5 m/s 747 mmHg 75%
    12:00 +34°C° 0,9 mm 4 m/s 747 mmHg 72%
    13:00 +35°C° 1,2 mm 4 m/s 746 mmHg 69%
    14:00 +36°C° 1,2 mm 4 m/s 746 mmHg 66%
    15:00 +37°C° 1,2 mm 4 m/s 745 mmHg 63%
    16:00 +36°C° 0,1 mm 4 m/s 745 mmHg 64%
    17:00 +36°C° 0,1 mm 4 m/s 745 mmHg 65%
    18:00 +36°C° 0,1 mm 4 m/s 745 mmHg 66%
    19:00 +35°C° 0,1 mm 5 m/s 745 mmHg 69%
    20:00 +34°C° 0,1 mm 5 m/s 746 mmHg 72%
    21:00 +33°C° 0,1 mm 5 m/s 747 mmHg 75%
    22:00 +33°C° 2,7 mm 5 m/s 747 mmHg 77%
    23:00 +33°C° 2,7 mm 5 m/s 747 mmHg 78%

    27 Junho, Quarta-feira

    Tempo Temperatura Precipitação Vento Pressão Humidade
    00:00 +32°C° 2,7 mm 6 m/s 747 mmHg 80%
    01:00 +32°C° 2,1 mm 6 m/s 747 mmHg 81%
    02:00 +30°C° 2,1 mm 6 m/s 747 mmHg 82%
    03:00 +30°C° 2,1 mm 5 m/s 746 mmHg 83%
    04:00 +30°C° 0,9 mm 6 m/s 747 mmHg 83%
    05:00 +30°C° 0,9 mm 6 m/s 747 mmHg 84%
    06:00 +29°C° 0,9 mm 6 m/s 747 mmHg 85%
    07:00 +30°C° 0,1 mm 6 m/s 747 mmHg 81%
    08:00 +32°C° 0,1 mm 6 m/s 748 mmHg 77%
    09:00 +34°C° 0,1 mm 6 m/s 748 mmHg 73%
    10:00 +35°C° 0,2 mm 6 m/s 748 mmHg 69%
    11:00 +35°C° 0,2 mm 6 m/s 748 mmHg 65%
    12:00 +36°C° 0,2 mm 6 m/s 748 mmHg 62%
    13:00 +38°C° 0,9 mm 6 m/s 747 mmHg 61%
    14:00 +37°C° 0,9 mm 5 m/s 747 mmHg 61%
    15:00 +37°C° 0,9 mm 5 m/s 746 mmHg 61%
    16:00 +36°C° 1,1 mm 5 m/s 746 mmHg 63%
    17:00 +36°C° 1,1 mm 5 m/s 746 mmHg 66%
    18:00 +35°C° 1,1 mm 5 m/s 746 mmHg 68%
    19:00 +34°C° 0,7 mm 5 m/s 747 mmHg 72%
    20:00 +33°C° 0,7 mm 4 m/s 747 mmHg 75%
    21:00 +32°C° 0,7 mm 4 m/s 748 mmHg 79%
    22:00 +32°C° 0,2 mm 4 m/s 748 mmHg 80%
    23:00 +32°C° 0,2 mm 4 m/s 748 mmHg 81%
    Mostrar mais